EW3286 Weather Reports


Display with metric or nautical units.
time (UTC)temp
F
wind
direction
speed
MPH
gust
MPH
rain 1hr
in
rain 24hr
in
rain mn
in
humidity
%
barometer
mb
20260503031554 59 84 0.0 0.0 0.00 0.00 0.00 39 1009.9
20260503030100 58 85 0.0 0.0 0.00 0.00 0.00 40 1010.3
20260503024550 58 121 0.0 0.0 0.00 0.00 0.00 40 1010.7
20260503023057 58 108 0.0 0.0 0.00 0.00 0.00 40 1010.7
20260503021556 58 76 0.0 0.0 0.00 0.00 0.00 40 1010.6
20260503020056 58 96 0.0 0.0 0.00 0.00 0.00 39 1010.9
20260503014545 59 109 0.0 0.0 0.00 0.00 0.00 38 1011.1
20260503013044 60 102 0.0 0.0 0.00 0.00 0.00 37 1011.4
20260503011542 62 136 0.0 0.0 0.00 0.00 0.00 34 1011.5
20260503010042 62 88 0.0 0.0 0.00 0.00 0.00 33 1011.7
20260503004553 63 150 0.0 0.0 0.00 0.00 0.00 32 1011.8
20260503003056 63 180 0.0 0.0 0.00 0.00 0.00 31 1012.1
20260503001542 63 126 0.0 0.0 0.00 0.00 0.00 32 1012.1
20260503000035 63 134 0.0 0.0 0.00 0.00 0.00 31 1012.4
20260502234533 64 165 0.0 0.0 0.00 0.00 0.00 32 1012.5
20260502233032 65 119 0.0 0.0 0.00 0.00 0.00 31 1012.5
20260502231532 65 121 0.0 0.0 0.00 0.00 0.00 31 1012.7
20260502230030 65 146 0.0 0.0 0.00 0.00 0.00 34 1012.8
20260502224533 63 125 0.0 0.0 0.00 0.00 0.00 34 1013.4
20260502223024 64 142 0.0 0.0 0.00 0.00 0.00 35 1013.8
20260502221523 65 145 0.0 0.0 0.00 0.00 0.00 35 1013.9
20260502220028 65 139 0.0 0.0 0.00 0.00 0.00 34 1014.0
20260502214520 65 161 0.0 0.0 0.00 0.00 0.00 32 1014.1
20260502213018 65 126 0.0 0.0 0.00 0.00 0.00 34 1014.2
20260502211516 64 126 0.0 0.0 0.00 0.00 0.00 34 1014.4
20260502210015 65 151 0.0 0.0 0.00 0.00 0.00 34 1014.7
20260502204509 64 159 0.0 0.0 0.00 0.00 0.00 36 1015.1
20260502203004 64 179 0.0 0.0 0.00 0.00 0.00 35 1015.5
20260502201501 64 177 0.0 0.0 0.00 0.00 0.00 33 1015.6
20260502200126 63 177 0.0 0.0 0.00 0.00 0.00 36 1016.0
20260502194605 63 169 0.0 0.0 0.00 0.00 0.00 37 1016.4
20260502193047 62 190 0.0 0.0 0.00 0.00 0.00 37 1016.7
20260502191548 62 144 0.0 0.0 0.00 0.00 0.00 36 1017.0
20260502190043 62 145 0.0 0.0 0.00 0.00 0.00 36 1017.2
20260502184538 61 141 0.0 0.0 0.00 0.00 0.00 39 1017.4
20260502183043 60 205 0.0 0.0 0.00 0.00 0.00 36 1017.7
20260502181531 60 169 0.0 0.0 0.00 0.00 0.00 37 1017.9
20260502163008 55 162 0.0 0.0 0.00 0.00 0.00 43 1019.6
20260502161503 55 160 0.0 0.0 0.00 0.00 0.00 43 1019.7
20260502160107 54 140 0.0 0.0 0.00 0.00 0.00 44 1020.0
20260502151552 52 150 0.0 0.0 0.00 0.00 0.00 47 1020.3
20260502150106 52 150 0.0 0.0 0.00 0.00 0.00 46 1020.3
20260502123057 35 165 0.0 0.0 0.00 0.00 0.00 83 1021.3
20260502121602 34 189 0.0 0.0 0.00 0.00 0.00 83 1021.4
20260502120111 33 196 0.0 0.0 0.00 0.00 0.00 82 1021.3
20260502114554 32 227 0.0 0.0 0.00 0.00 0.00 81 1021.3
20260502113108 32 247 0.0 0.0 0.00 0.00 0.00 81 1021.2
20260502111547 31 248 0.0 0.0 0.00 0.00 0.00 81 1021.2
20260502110047 32 248 0.0 0.0 0.00 0.00 0.00 81 1021.1
20260502104542 31 248 0.0 0.0 0.00 0.00 0.00 82 1021.3
20260502103104 31 249 0.0 0.0 0.00 0.00 0.00 81 1021.3
20260502101548 31 250 0.0 0.0 0.00 0.00 0.00 80 1021.3
20260502091533 33 268 0.0 0.0 0.00 0.00 0.00 79 1021.1
20260502071521 34 269 0.0 0.0 0.00 0.00 0.00 79 1021.1
20260502070018 34 269 0.0 0.0 0.00 0.00 0.00 79 1021.3
20260502064515 34 269 0.0 0.0 0.00 0.00 0.00 78 1021.3
20260502063016 34 269 0.0 0.0 0.00 0.00 0.00 78 1021.4
20260502061513 34 269 0.0 0.0 0.00 0.00 0.00 77 1021.4
20260502060011 35 269 0.0 0.0 0.00 0.00 0.00 76 1021.4
20260502054511 35 269 0.0 0.0 0.00 0.00 0.00 74 1021.3
20260502053007 35 269 0.0 0.0 0.00 0.00 0.00 74 1021.3
20260502051506 35 269 0.0 0.0 0.00 0.00 0.00 73 1021.3
20260502050003 36 269 0.0 0.0 0.00 0.00 0.00 73 1021.3
20260502044501 36 269 0.0 0.0 0.00 0.00 0.00 74 1021.3
20260502043109 36 269 0.0 0.0 0.00 0.00 0.00 72 1021.2
20260502041600 37 269 0.0 0.0 0.00 0.00 0.00 70 1021.2
20260502040101 38 269 0.0 0.0 0.00 0.00 0.00 69 1021.1
20260502034559 39 269 0.0 0.0 0.00 0.00 0.00 67 1021.0
20260502033057 40 269 0.0 0.0 0.00 0.00 0.00 66 1021.0